EA3GKP-7 Weather Reports


Display with metric or nautical units.
time (UTC)temp
F
wind
direction
speed
MPH
gust
MPH
rain 1hr
in
rain 24hr
in
rain mn
in
humidity
%
barometer
mb
20260504130718 69 0.0 0.0 0.00 0.00 0.00 10 1016.0
20260504130218 69 0.0 0.0 0.00 0.00 0.00 10 1015.8
20260504120218 69 0.0 0.0 0.00 0.00 0.00 10 1016.3
20260504110718 69 0.0 0.0 0.00 0.00 0.00 10 1016.3
20260504110218 70 0.0 0.0 0.00 0.00 0.00 10 1016.1
20260504100218 71 0.0 0.0 0.00 0.00 0.00 10 1016.5
20260504081718 73 0.0 0.0 0.00 0.00 0.00 10 1016.3
20260504081218 73 0.0 0.0 0.00 0.00 0.00 10 1016.5
20260504080717 73 0.0 0.0 0.00 0.00 0.00 10 1016.5
20260504080218 72 0.0 0.0 0.00 0.00 0.00 10 1016.5
20260504070217 68 0.0 0.0 0.00 0.00 0.00 10 1017.1
20260504060217 65 0.0 0.0 0.00 0.00 0.00 10 1017.3
20260504050717 65 0.0 0.0 0.00 0.00 0.00 10 1017.3
20260504050217 65 0.0 0.0 0.00 0.00 0.00 10 1017.3
20260504045717 65 0.0 0.0 0.00 0.00 0.00 10 1017.2
20260504045217 65 0.0 0.0 0.00 0.00 0.00 10 1017.2
20260504044717 65 0.0 0.0 0.00 0.00 0.00 10 1017.2
20260504044217 65 0.0 0.0 0.00 0.00 0.00 10 1017.2
20260504043717 65 0.0 0.0 0.00 0.00 0.00 10 1017.2
20260504043217 65 0.0 0.0 0.00 0.00 0.00 10 1017.2
20260504042717 65 0.0 0.0 0.00 0.00 0.00 10 1017.3
20260504042217 65 0.0 0.0 0.00 0.00 0.00 10 1017.2
20260504041717 65 0.0 0.0 0.00 0.00 0.00 10 1017.2
20260504041217 65 0.0 0.0 0.00 0.00 0.00 10 1017.3
20260504040717 65 0.0 0.0 0.00 0.00 0.00 10 1017.3
20260504040217 65 0.0 0.0 0.00 0.00 0.00 10 1017.3
20260504035717 65 0.0 0.0 0.00 0.00 0.00 10 1017.5
20260504035217 65 0.0 0.0 0.00 0.00 0.00 10 1017.5
20260504034717 66 0.0 0.0 0.00 0.00 0.00 10 1017.5
20260504034217 65 0.0 0.0 0.00 0.00 0.00 10 1017.4
20260504033717 65 0.0 0.0 0.00 0.00 0.00 10 1017.3
20260504033217 65 0.0 0.0 0.00 0.00 0.00 10 1017.3
20260504032717 65 0.0 0.0 0.00 0.00 0.00 10 1017.4
20260504032217 66 0.0 0.0 0.00 0.00 0.00 10 1017.7
20260504031717 66 0.0 0.0 0.00 0.00 0.00 10 1017.7
20260504031217 66 0.0 0.0 0.00 0.00 0.00 10 1017.8
20260504030717 65 0.0 0.0 0.00 0.00 0.00 10 1017.8
20260504030217 66 0.0 0.0 0.00 0.00 0.00 10 1017.8
20260504025717 66 0.0 0.0 0.00 0.00 0.00 10 1017.8
20260504025217 66 0.0 0.0 0.00 0.00 0.00 10 1017.7
20260504024717 66 0.0 0.0 0.00 0.00 0.00 10 1017.6
20260504024217 66 0.0 0.0 0.00 0.00 0.00 10 1017.6
20260504023717 66 0.0 0.0 0.00 0.00 0.00 10 1017.5
20260504023217 66 0.0 0.0 0.00 0.00 0.00 10 1017.4
20260504022717 66 0.0 0.0 0.00 0.00 0.00 10 1017.3
20260504022217 65 0.0 0.0 0.00 0.00 0.00 10 1017.4
20260504021717 65 0.0 0.0 0.00 0.00 0.00 10 1017.5
20260504021217 65 0.0 0.0 0.00 0.00 0.00 10 1017.5
20260504020717 65 0.0 0.0 0.00 0.00 0.00 10 1017.6
20260504020217 65 0.0 0.0 0.00 0.00 0.00 10 1017.6
20260504015717 65 0.0 0.0 0.00 0.00 0.00 10 1017.6
20260504015217 65 0.0 0.0 0.00 0.00 0.00 10 1017.7
20260504014717 65 0.0 0.0 0.00 0.00 0.00 10 1017.6
20260504014217 65 0.0 0.0 0.00 0.00 0.00 10 1017.7
20260504013717 65 0.0 0.0 0.00 0.00 0.00 10 1017.7
20260504013217 65 0.0 0.0 0.00 0.00 0.00 10 1017.7
20260504012717 65 0.0 0.0 0.00 0.00 0.00 10 1017.8
20260504012217 65 0.0 0.0 0.00 0.00 0.00 10 1017.9
20260504011717 65 0.0 0.0 0.00 0.00 0.00 10 1017.9
20260504011217 65 0.0 0.0 0.00 0.00 0.00 10 1018.0
20260504010717 65 0.0 0.0 0.00 0.00 0.00 10 1018.0
20260504010217 65 0.0 0.0 0.00 0.00 0.00 10 1017.9
20260504005717 65 0.0 0.0 0.00 0.00 0.00 10 1018.0
20260504005217 65 0.0 0.0 0.00 0.00 0.00 10 1018.0
20260504004717 65 0.0 0.0 0.00 0.00 0.00 10 1018.1
20260504004217 65 0.0 0.0 0.00 0.00 0.00 10 1018.0
20260504003717 65 0.0 0.0 0.00 0.00 0.00 10 1018.2
20260504003217 65 0.0 0.0 0.00 0.00 0.00 10 1018.2
20260504002717 65 0.0 0.0 0.00 0.00 0.00 10 1018.2
20260504001717 65 0.0 0.0 0.00 0.00 0.00 10 1018.3
20260504001217 65 0.0 0.0 0.00 0.00 0.00 10 1018.3
20260504000717 65 0.0 0.0 0.00 0.00 0.00 10 1018.4
20260504000219 65 0.0 0.0 0.00 0.00 0.00 10 1018.3
20260503235717 65 0.0 0.0 0.00 0.00 0.00 10 1018.4
20260503235217 65 0.0 0.0 0.00 0.00 0.00 10 1018.3
20260503234717 65 0.0 0.0 0.00 0.00 0.00 10 1018.2
20260503234217 65 0.0 0.0 0.00 0.00 0.00 10 1018.3
20260503233717 65 0.0 0.0 0.00 0.00 0.00 10 1018.3
20260503233217 65 0.0 0.0 0.00 0.00 0.00 10 1018.5
20260503232717 64 0.0 0.0 0.00 0.00 0.00 10 1018.6
20260503232217 64 0.0 0.0 0.00 0.00 0.00 10 1018.5
20260503231717 64 0.0 0.0 0.00 0.00 0.00 10 1018.7
20260503231217 64 0.0 0.0 0.00 0.00 0.00 10 1018.5
20260503230717 64 0.0 0.0 0.00 0.00 0.00 10 1018.5
20260503230217 64 0.0 0.0 0.00 0.00 0.00 10 1018.6
20260503225717 64 0.0 0.0 0.00 0.00 0.00 10 1018.5
20260503225217 64 0.0 0.0 0.00 0.00 0.00 10 1018.6
20260503224717 65 0.0 0.0 0.00 0.00 0.00 10 1018.6
20260503224217 65 0.0 0.0 0.00 0.00 0.00 10 1018.8
20260503223717 65 0.0 0.0 0.00 0.00 0.00 10 1018.7
20260503223217 65 0.0 0.0 0.00 0.00 0.00 10 1018.8
20260503222717 64 0.0 0.0 0.00 0.00 0.00 10 1018.8
20260503222217 64 0.0 0.0 0.00 0.00 0.00 10 1018.7
20260503221717 64 0.0 0.0 0.00 0.00 0.00 10 1018.7
20260503221217 64 0.0 0.0 0.00 0.00 0.00 10 1018.8
20260503220717 64 0.0 0.0 0.00 0.00 0.00 10 1018.9
20260503220217 64 0.0 0.0 0.00 0.00 0.00 10 1018.8
20260503215717 64 0.0 0.0 0.00 0.00 0.00 10 1018.7
20260503215217 64 0.0 0.0 0.00 0.00 0.00 10 1018.7
20260503214717 64 0.0 0.0 0.00 0.00 0.00 10 1018.7
20260503214217 65 0.0 0.0 0.00 0.00 0.00 10 1018.7
20260503213717 64 0.0 0.0 0.00 0.00 0.00 10 1018.6
20260503213217 64 0.0 0.0 0.00 0.00 0.00 10 1018.8
20260503212717 65 0.0 0.0 0.00 0.00 0.00 10 1018.8
20260503212217 65 0.0 0.0 0.00 0.00 0.00 10 1018.8
20260503211717 65 0.0 0.0 0.00 0.00 0.00 10 1018.6
20260503211217 64 0.0 0.0 0.00 0.00 0.00 10 1018.7
20260503210717 64 0.0 0.0 0.00 0.00 0.00 10 1018.8
20260503210217 64 0.0 0.0 0.00 0.00 0.00 10 1018.8
20260503205717 64 0.0 0.0 0.00 0.00 0.00 10 1019.0
20260503205217 64 0.0 0.0 0.00 0.00 0.00 10 1019.0
20260503204717 65 0.0 0.0 0.00 0.00 0.00 10 1019.0
20260503204217 65 0.0 0.0 0.00 0.00 0.00 10 1018.9
20260503203717 65 0.0 0.0 0.00 0.00 0.00 10 1018.9
20260503203217 65 0.0 0.0 0.00 0.00 0.00 10 1019.0
20260503202717 65 0.0 0.0 0.00 0.00 0.00 10 1019.1
20260503202216 65 0.0 0.0 0.00 0.00 0.00 10 1019.0
20260503201717 65 0.0 0.0 0.00 0.00 0.00 10 1019.0
20260503201217 65 0.0 0.0 0.00 0.00 0.00 10 1019.0
20260503200717 65 0.0 0.0 0.00 0.00 0.00 10 1019.0
20260503200216 65 0.0 0.0 0.00 0.00 0.00 10 1019.0
20260503195717 65 0.0 0.0 0.00 0.00 0.00 10 1019.0
20260503195217 65 0.0 0.0 0.00 0.00 0.00 10 1018.9
20260503194716 66 0.0 0.0 0.00 0.00 0.00 10 1018.9
20260503194217 66 0.0 0.0 0.00 0.00 0.00 10 1018.7
20260503193717 66 0.0 0.0 0.00 0.00 0.00 10 1018.8
20260503193217 66 0.0 0.0 0.00 0.00 0.00 10 1018.7
20260503192716 66 0.0 0.0 0.00 0.00 0.00 10 1018.7
20260503192216 66 0.0 0.0 0.00 0.00 0.00 10 1018.8
20260503191716 66 0.0 0.0 0.00 0.00 0.00 10 1018.6
20260503191216 66 0.0 0.0 0.00 0.00 0.00 10 1018.6
20260503190716 66 0.0 0.0 0.00 0.00 0.00 10 1018.5
20260503190216 66 0.0 0.0 0.00 0.00 0.00 10 1018.4
20260503185716 66 0.0 0.0 0.00 0.00 0.00 10 1018.4
20260503185217 66 0.0 0.0 0.00 0.00 0.00 10 1018.3
20260503184716 66 0.0 0.0 0.00 0.00 0.00 10 1018.3
20260503184216 66 0.0 0.0 0.00 0.00 0.00 10 1018.4
20260503183716 66 0.0 0.0 0.00 0.00 0.00 10 1018.6
20260503183216 66 0.0 0.0 0.00 0.00 0.00 10 1018.7
20260503182716 66 0.0 0.0 0.00 0.00 0.00 10 1018.7
20260503182216 66 0.0 0.0 0.00 0.00 0.00 10 1018.7
20260503181716 66 0.0 0.0 0.00 0.00 0.00 10 1018.7
20260503181216 66 0.0 0.0 0.00 0.00 0.00 10 1018.6
20260503180716 66 0.0 0.0 0.00 0.00 0.00 10 1018.5
20260503180216 66 0.0 0.0 0.00 0.00 0.00 10 1018.4
20260503175716 66 0.0 0.0 0.00 0.00 0.00 10 1018.5
20260503175216 66 0.0 0.0 0.00 0.00 0.00 10 1018.5
20260503174717 66 0.0 0.0 0.00 0.00 0.00 10 1018.5
20260503174216 66 0.0 0.0 0.00 0.00 0.00 10 1018.5
20260503173716 66 0.0 0.0 0.00 0.00 0.00 10 1018.5
20260503173216 66 0.0 0.0 0.00 0.00 0.00 10 1018.4
20260503172716 66 0.0 0.0 0.00 0.00 0.00 10 1018.3
20260503172216 66 0.0 0.0 0.00 0.00 0.00 10 1018.2
20260503171716 66 0.0 0.0 0.00 0.00 0.00 10 1018.1
20260503171216 66 0.0 0.0 0.00 0.00 0.00 10 1018.1
20260503170716 66 0.0 0.0 0.00 0.00 0.00 10 1018.1
20260503170216 66 0.0 0.0 0.00 0.00 0.00 10 1018.0
20260503160217 67 0.0 0.0 0.00 0.00 0.00 10 1018.7
20260503150716 67 0.0 0.0 0.00 0.00 0.00 10 1018.6
20260503150216 67 0.0 0.0 0.00 0.00 0.00 10 1018.6
20260503140216 68 0.0 0.0 0.00 0.00 0.00 10 1018.9